Location: Unnamed
(48.6007°N, 2.4808°E)
Time: 20:07:20
(UTC+02:00)

DX 1 - Pass Details

Date: 11 April 2023
Orbit: 615 x 625 km, 98.4° (Epoch: 04 June)

Event Time Altitude Azimuth Distance (km) Brightness Sun altitude
Rises 23:10:45 0° 28° (NNE) 2,900 ? -22.9°
Reaches altitude 10° 23:13:33 10° 47° (NE) 1,989 ? -23.3°
Enters shadow 23:14:04 12° 53° (NE) 1,852 ? -23.3°
